Miscellaneous Local Product
Issued by NWS Hastings, NE

Home | Current Version | Previous Version | Graphics & Text | Print | Product List | Glossary On
Versions: 1 2 3 4 5 6 7 8 9 10 11 12 13 14 15 16 17 18 19 20 21 22 23 24 25 26 27 28 29 30 31 32 33 34 35 36 37 38 39 40 41 42 43 44 45 46 47 48 49 50
000
AXUS43 KGID 210402
MISGRI

GID CWA HOURLY WEATHER ROUNDUP
NATIONAL WEATHER SERVICE HASTINGS NE
1100 PM CDT WED AUG 20 2014

NOTE: "FAIR" INDICATES FEW OR NO CLOUDS BELOW 12,000 FEET WITH NO
SIGNIFICANT WEATHER AND/OR OBSTRUCTIONS TO VISIBILITY.

...SOUTH CENTRAL NEBRASKA...

CITY           SKY/WX    TMP DP  RH WIND       PRES   REMARKS
GRAND ISLAND   CLOUDY    81  70  69 S10       29.75F
HASTINGS       CLOUDY    81  65  58 S10       29.77R
KEARNEY        CLOUDY    79  68  69 S12       29.77R
ORD            MOCLDY    79  72  79 SW9       29.75R
YORK           MOCLDY    81 N/A N/A S12       29.77S
AURORA         CLOUDY    80  73  78 S9        29.76F
LEXINGTON      MOCLDY    74  69  86 CALM      29.78S
HOLDREGE       CLOUDY    81  65  58 S21G26    29.80R
HEBRON         CLOUDY    82  67  59 S14       29.78S

...NEBRASKA PANHANDLE...

CITY           SKY/WX    TMP DP  RH WIND       PRES   REMARKS
CHADRON        PTCLDY    69  52  54 CALM      29.81R
ALLIANCE       PTCLDY    68  53  58 SW6       29.86S
SCOTTSBLUFF    MOCLDY    73  58  59 CALM      29.88R
SIDNEY         LGT RAIN  67  60  78 W14       29.96R

...WESTERN AND NORTH CENTRAL NEBRASKA...

CITY           SKY/WX    TMP DP  RH WIND       PRES   REMARKS
VALENTINE      PTCLDY    78  64  61 SW10      29.74R
AINSWORTH      MOCLDY    77  71  81 S7        29.74F
ONEILL         PTCLDY    80  74  82 SW9       29.76R
BROKEN BOW     MOCLDY    72  68  87 CALM      29.75F
IMPERIAL       MOCLDY    69  65  86 CALM      29.82F
NORTH PLATTE   MOCLDY    73  61  65 S7        29.82R
MCCOOK         MOCLDY    81  59  47 N15       29.79R

...EASTERN NEBRASKA...

CITY           SKY/WX    TMP DP  RH WIND       PRES   REMARKS
NORFOLK        PTCLDY    80  69  69 SE13      29.74F
SO SIOUX CITY  PTCLDY    78  74  87 SE9       29.76S
TEKAMAH        CLEAR     79  73  82 SE12      29.76F
COLUMBUS       CLEAR     79  70  73 SE9       29.76F
ALBION         CLEAR     76  70  81 SE7       29.75F
OMAHA EPPLEY   PTCLDY    81  72  74 SE16      29.78S
OFFUTT AFB     CLEAR     79  77  94 SE9       29.79R
MILLARD        CLEAR     80  73  79 SE6       29.78S
LINCOLN        PTCLDY    83  69  62 S12       29.77S
NEBRASKA CITY  CLEAR     78  73  85 S9        29.81R
BEATRICE       PTCLDY    83  70  65 S10G16    29.79S
FALLS CITY     CLEAR     81  73  76 S7        29.81R

...NORTHERN KANSAS...

CITY           SKY/WX    TMP DP  RH WIND       PRES   REMARKS
GOODLAND       PTCLDY    72  62  71 CALM      29.86R
HILL CITY      MOCLDY    87  62  43 S15G21    29.76R
NORTON         CLEAR     75  63  64 CALM      29.78R
PHILLIPSBURG   PTCLDY    86  63  45 SE9       29.76R
SMITH CENTER   CLEAR     81  63  54 SE12      29.77R
BELOIT         CLEAR     82  66  57 SE12G17   29.76S
HAYS           PTCLDY    84  61  45 S16       29.79R
RUSSELL        CLEAR     84  61  45 S15       29.77S
CONCORDIA      PTCLDY    83  67  58 S16G26    29.79R
SALINA         PTCLDY    85  65  51 S17       29.80R
TOPEKA         PTCLDY    85  68  56 S12G20    29.85R



USA.gov is the U.S. government's official web portal to all federal, state and local government web resources and services.